Location: Goudex
(43.3760°N, 0.9543°E)
Time: 16:25:18
(UTC+00:00)

ATLAS CENTAUR R/B - Pass Details

Date: 20 November 2019
Orbit: 457 x 691 km, 64.7° (Epoch: 30 November)

Event Time Altitude Azimuth Distance (km) Brightness Sun altitude
Exits shadow 03:24:00 17° 100° (E) 1,705 4.3 -38.1°
Drops below altitude 10° 03:26:29 10° 69° (ENE) 2,121 5.0 -37.7°
Sets 03:29:27 0° 50° (NE) 3,014 5.8 -37.2°
